User: anonymous   Login
Location: Fort Wayne
(41.1310°N, 85.1290°W)
Time: 17:03:21
(UTC-04:00)
Language:

Iridium 37 - Orbit

View from above orbital plane
View from above orbital plane
View from above satellite
View from above satellite

Ground track
Ground track

The orbit data is extracted from the following two-line orbital elements,

1 24968U 97056D   15109.46970603  .00000302  00000-0  10089-3 0  9993
2 24968 086.3921 288.9467 0002129 093.6472 266.4967 14.34219918919347
Epoch (UTC): 19 April 2015 11:16:22
Eccentricity: 0.0002129
inclination: 86.3921°
perigee height: 776 km
apogee height: 779 km
right ascension of ascending node: 288.9467°
argument of perigee: 93.6472°
revolutions per day: 14.34219918
mean anomaly at epoch: 266.4967°
orbit number at epoch: 91934

The dashed part of the orbit path shows where the satellite is in the earth's shadow,  

DLR